Weather History for Tel Aviv, Israel

Change the Weather History Date:

Monday, February 4, 2013

  Actual Average Record
Temperature  
Mean Temperature 60 °F -  
Max Temperature 77 °F 63 °F 78 °F (2009)
Min Temperature 44 °F 48 °F 42 °F (2000)
Degree Days  
Heating Degree Days 4    
Growing Degree Days 10 (Base 50)    
Moisture  
Dew Point 43 °F    
Average Humidity 56    
Maximum Humidity 87    
Minimum Humidity 20    
Precipitation  
Precipitation 0.00 in - - ()
Sea Level Pressure  
Sea Level Pressure 30.13 in    
Wind  
Wind Speed 3 mph ()    
Max Wind Speed 12 mph    
Max Gust Speed -    
Visibility 6.2 miles    
Events      
Averages and records for this station are not official NWS values.
T = Trace of Precipitation, MM = Missing Value Source: Averaged Metar Reports

Daily Weather History Graph

Daily Weather History Graph

Search for Another Location

Airport:

Trip Planner

Search our weather history database for the weather conditions in past years. The results will help you decide how hot, cold, wet, or windy it might be!

Date:

Astronomy

Feb. 04, 2013 Rise Set
Actual Time 6:32 AM IST 5:17 PM IST
Civil Twilight 6:06 AM IST 5:42 PM IST
Nautical Twilight 5:37 AM IST 6:11 PM IST
Astronomical Twilight 5:08 AM IST 6:40 PM IST
Moon 12:41 AM IST (2/4) 11:28 AM IST (2/4)
Length of Visible Light 11h 36m
Length of Day
10h 45m
Last Quarter, 41% of the Moon is Illuminated
Feb 4
Last Quarter
Feb 10
New
Feb 17
First Quarter
Feb 25
Full
Mar 4
Last Quarter

Hourly Weather History & Observations

Time (IST) Temp. Dew Point Humidity Pressure Visibility Wind Dir Wind Speed Gust Speed Precip Events Conditions
12:20 AM 50.0 °F 46.4 °F 87% 30.21 in - Variable 3.5 mph - N/A   Clear
12:50 AM 50.0 °F 46.4 °F 87% 30.21 in - Variable 3.5 mph - N/A   Clear
1:20 AM 48.2 °F 42.8 °F 82% 30.21 in - Variable 2.3 mph - N/A   Clear
1:50 AM 48.2 °F 42.8 °F 82% 30.21 in - Variable 2.3 mph - N/A   Clear
2:00 AM 48 °F 43 °F 77% 30.17 in 6 mi East 2.3 mph - -  
2:20 AM 48.2 °F 42.8 °F 82% 30.21 in - Variable 2.3 mph - N/A   Clear
2:50 AM 46.4 °F 41.0 °F 81% 30.21 in - Variable 1.2 mph - N/A   Clear
3:20 AM 46.4 °F 41.0 °F 81% 30.21 in - Variable 1.2 mph - N/A   Clear
3:50 AM 46.4 °F 41.0 °F 81% 30.21 in - Variable 1.2 mph - N/A   Clear
4:20 AM 46.4 °F 42.8 °F 87% 30.18 in - Variable 2.3 mph - N/A   Clear
4:50 AM 46.4 °F 41.0 °F 81% 30.18 in - Variable 2.3 mph - N/A   Clear
5:20 AM 44.6 °F 41.0 °F 87% 30.18 in - Variable 2.3 mph - N/A   Clear
5:50 AM 44.6 °F 41.0 °F 87% 30.18 in - Variable 2.3 mph - N/A   Clear
6:20 AM 44.6 °F 41.0 °F 87% 30.18 in - Variable 1.2 mph - N/A   Clear
6:50 AM 44.6 °F 41.0 °F 87% 30.18 in - Variable 1.2 mph - N/A   Clear
7:20 AM 50.0 °F 44.6 °F 82% 30.21 in - Variable 1.2 mph - N/A   Clear
7:50 AM 53.6 °F 44.6 °F 72% 30.21 in - Variable 1.2 mph - N/A   Clear
8:00 AM 54 °F 44 °F 60% 30.16 in 6 mi ESE 2.3 mph - -  
8:20 AM 53.6 °F 44.6 °F 72% 30.21 in - Calm Calm - N/A   Clear
8:50 AM 57.2 °F 44.6 °F 63% 30.18 in - Calm Calm - N/A   Clear
9:20 AM 59.0 °F 44.6 °F 59% 30.18 in - Variable 2.3 mph - N/A   Clear
9:50 AM 62.6 °F 48.2 °F 59% 30.18 in - Variable 2.3 mph - N/A   Clear
10:20 AM 66.2 °F 42.8 °F 43% 30.18 in - Variable 2.3 mph - N/A   Clear
10:50 AM 69.8 °F 44.6 °F 40% 30.15 in - Variable 1.2 mph - N/A   Clear
11:20 AM 71.6 °F 44.6 °F 38% 30.15 in - ENE 5.8 mph - N/A   Clear
12:50 PM 77.0 °F 33.8 °F 21% 30.12 in 6.2 mi Variable 3.5 mph - N/A   Partly Cloudy
1:20 PM 77.0 °F 33.8 °F 21% 30.09 in 6.2 mi Variable 3.5 mph - N/A   Partly Cloudy
1:50 PM 75.2 °F 42.8 °F 31% 30.09 in 6.2 mi Variable 2.3 mph - N/A   Partly Cloudy
2:00 PM 75 °F 42 °F 20% 30.10 in 6 mi 2.3 mph - -  
2:20 PM 73.4 °F 50.0 °F 44% 30.09 in 6.2 mi WNW 6.9 mph - N/A   Partly Cloudy
2:50 PM 73.4 °F 48.2 °F 41% 30.06 in 6.2 mi WNW 5.8 mph - N/A   Mostly Cloudy
3:20 PM 77.0 °F 50.0 °F 39% 30.06 in 6.2 mi East 10.4 mph - N/A   Mostly Cloudy
3:50 PM 75.2 °F 39.2 °F 27% 30.06 in 6.2 mi East 11.5 mph - N/A   Scattered Clouds
4:20 PM 75.2 °F 39.2 °F 27% 30.06 in 6.2 mi ESE 9.2 mph - N/A   Partly Cloudy
4:50 PM 73.4 °F 41.0 °F 31% 30.06 in 6.2 mi East 8.1 mph - N/A   Partly Cloudy
5:20 PM 71.6 °F 42.8 °F 35% 30.06 in 6.2 mi Variable 3.5 mph - N/A   Partly Cloudy
5:50 PM 71.6 °F 42.8 °F 35% 30.06 in 6.2 mi SE 4.6 mph - N/A   Partly Cloudy
6:20 PM 68.0 °F 39.2 °F 35% 30.06 in 6.2 mi SE 5.8 mph - N/A   Partly Cloudy
6:50 PM 66.2 °F 42.8 °F 43% 30.06 in - East 4.6 mph - N/A   Clear
7:20 PM 62.6 °F 44.6 °F 52% 30.06 in - Variable 2.3 mph - N/A   Clear
7:50 PM 62.6 °F 42.8 °F 48% 30.06 in - Variable 2.3 mph - N/A   Clear
8:00 PM 63 °F 42 °F 34% 30.07 in 6 mi 2.3 mph - -  
8:20 PM 60.8 °F 44.6 °F 55% 30.06 in - Variable 2.3 mph - N/A   Clear
8:50 PM 59.0 °F 46.4 °F 63% 30.04 in - Variable 2.3 mph - N/A   Clear
9:20 PM 59.0 °F 46.4 °F 63% 30.04 in - Variable 2.3 mph - N/A   Clear
9:50 PM 62.6 °F 41.0 °F 45% 30.04 in - Variable 3.5 mph - N/A   Clear
10:50 PM 62.6 °F 41.0 °F 45% 30.04 in - SE 6.9 mph - N/A   Clear
11:20 PM 68.0 °F 35.6 °F 30% 30.01 in - SE 4.6 mph - N/A   Clear
11:50 PM 66.2 °F 35.6 °F 32% 30.01 in - SE 4.6 mph - N/A   Clear